,,PA_Meas_PMT16A,,PR_Meas_QMR101_102,,RH_Meas_QMH101,,SR_Meas_QMS101,,TA_Meas_QMH101,,GenWind,,GenWind,
time,status,PA,status,PR,status,RH,status,SR,status,TA,status,DirAvg,status,SpdAvg,
2010-11-12, 00:00:04,VALID,916.703,VALID,0,VALID,97.0156,VALID,0,VALID,19.9548,VALID,29,VALID,0.156641,
2010-11-12, 00:01:04,VALID,916.669,VALID,0,VALID,97.0156,VALID,0,VALID,19.9743,VALID,29,VALID,1.35508,
2010-11-12, 00:02:04,VALID,916.636,VALID,0,VALID,97.008,VALID,0,VALID,19.9743,VALID,7,VALID,0.821094,
2010-11-12, 00:03:04,VALID,916.613,VALID,0,VALID,97.0461,VALID,0,VALID,19.9953,VALID,7,VALID,0.670703,
2010-11-12, 00:04:04,VALID,916.594,VALID,0,VALID,96.9927,VALID,0,VALID,19.9953,VALID,7,VALID,0.603516,
2010-11-12, 00:05:04,VALID,916.55,VALID,0,VALID,97.0308,VALID,0,VALID,19.9353,VALID,44,VALID,1.69844,
2010-11-12, 00:06:04,VALID,916.546,VALID,0,VALID,97.069,VALID,0,VALID,19.9548,VALID,275,VALID,0.647656,
2010-11-12, 00:07:04,VALID,916.477,VALID,0,VALID,97.0461,VALID,0,VALID,19.9758,VALID,216,VALID,0.440234,
2010-11-12, 00:08:04,VALID,916.46,VALID,0,VALID,97.0766,VALID,0,VALID,19.9953,VALID,216,VALID,1.14805,
2010-11-12, 00:09:04,VALID,916.467,VALID,0.2,VALID,97.0308,VALID,0,VALID,19.9953,VALID,216,VALID,0.508594,
2010-11-12, 00:10:04,VALID,916.372,VALID,0,VALID,96.9546,VALID,0,VALID,19.9353,VALID,44,VALID,1.3793,
2010-11-12, 00:11:04,VALID,916.387,VALID,0,VALID,97.0461,VALID,0,VALID,19.9548,VALID,335,VALID,0.949609,
2010-11-12, 00:12:04,VALID,916.337,VALID,0,VALID,97.0385,VALID,0,VALID,19.9563,VALID,36,VALID,0.289453,
2010-11-12, 00:13:04,VALID,916.343,VALID,0,VALID,97.0308,VALID,0,VALID,19.9563,VALID,36,VALID,0.376563,
2010-11-12, 00:14:04,VALID,916.317,VALID,0,VALID,97.0537,VALID,0,VALID,19.9563,VALID,36,VALID,0.224609,
2010-11-12, 00:15:04,VALID,916.284,VALID,0,VALID,97.1071,VALID,0,VALID,19.9758,VALID,36,VALID,0.611719,
2010-11-12, 00:16:04,VALID,916.228,VALID,0,VALID,97.0918,VALID,0,VALID,19.9743,VALID,36,VALID,1.03125,
2010-11-12, 00:17:04,VALID,916.221,VALID,0,VALID,97.0918,VALID,0,VALID,20.0343,VALID,36,VALID,0,
2010-11-12, 00:18:04,VALID,916.23,VALID,0,VALID,97.0842,VALID,0,VALID,20.0343,VALID,36,VALID,1.07891,
2010-11-12, 00:19:04,VALID,916.196,VALID,0,VALID,97.0766,VALID,0,VALID,20.0523,VALID,36,VALID,0.377734,
2010-11-12, 00:20:04,VALID,916.173,VALID,0,VALID,97.069,VALID,0,VALID,20.0538,VALID,36,VALID,0.684375,
2010-11-12, 00:21:04,VALID,916.188,VALID,0,VALID,97.0842,VALID,0,VALID,20.0133,VALID,35,VALID,0,
2010-11-12, 00:22:04,VALID,916.153,VALID,0,VALID,97.0766,VALID,0,VALID,19.9938,VALID,35,VALID,0.841406,
2010-11-12, 00:23:04,VALID,916.184,VALID,0,VALID,97.0308,VALID,0,VALID,19.9953,VALID,35,VALID,0.494922,
2010-11-12, 00:24:04,VALID,916.164,VALID,0,VALID,97.0766,VALID,0,VALID,20.0148,VALID,35,VALID,0,
2010-11-12, 00:25:04,VALID,916.187,VALID,0,VALID,97.0842,VALID,0,VALID,20.0133,VALID,35,VALID,0.0226563,
2010-11-12, 00:26:04,VALID,916.184,VALID,0,VALID,97.0918,VALID,0,VALID,19.9938,VALID,35,VALID,0.966797,
2010-11-12, 00:27:04,VALID,916.175,VALID,0.2,VALID,97.0842,VALID,0,VALID,20.0148,VALID,35,VALID,0.547656,
2010-11-12, 00:28:04,VALID,916.151,VALID,0,VALID,97.069,VALID,0,VALID,19.9953,VALID,34,VALID,0.971484,
2010-11-12, 00:29:04,VALID,916.137,VALID,0,VALID,97.0766,VALID,0,VALID,19.9743,VALID,25,VALID,0.707422,
2010-11-12, 00:30:04,VALID,916.129,VALID,0,VALID,97.1223,VALID,0,VALID,20.0133,VALID,25,VALID,0.511328,
2010-11-12, 00:31:04,VALID,916.134,VALID,0,VALID,97.1147,VALID,0,VALID,20.0538,VALID,25,VALID,0.164063,
2010-11-12, 00:32:04,VALID,916.113,VALID,0.2,VALID,97.0918,VALID,0,VALID,20.0133,VALID,25,VALID,0.0898438,
2010-11-12, 00:33:04,VALID,916.099,VALID,0,VALID,97.0994,VALID,0,VALID,20.0148,VALID,25,VALID,0.308594,
2010-11-12, 00:34:04,VALID,916.1,VALID,0,VALID,97.0994,VALID,0,VALID,20.0343,VALID,25,VALID,0.353125,
2010-11-12, 00:35:04,VALID,916.074,VALID,0,VALID,97.069,VALID,0,VALID,20.0343,VALID,25,VALID,0.774219,
2010-11-12, 00:36:04,VALID,916.072,VALID,0.2,VALID,97.0613,VALID,0,VALID,19.9743,VALID,25,VALID,0.760938,
2010-11-12, 00:37:04,VALID,916.028,VALID,0,VALID,97.0994,VALID,0,VALID,19.9938,VALID,25,VALID,0.895312,
2010-11-12, 00:38:04,VALID,916.088,VALID,0,VALID,97.1071,VALID,0,VALID,20.0328,VALID,25,VALID,0.133203,
2010-11-12, 00:39:04,VALID,916.063,VALID,0,VALID,97.1147,VALID,0,VALID,20.0343,VALID,25,VALID,0.258594,
2010-11-12, 00:40:04,VALID,916.076,VALID,0,VALID,97.1223,VALID,0,VALID,20.0148,VALID,25,VALID,0.0808594,
2010-11-12, 00:41:04,VALID,915.973,VALID,0,VALID,97.1071,VALID,0,VALID,20.0148,VALID,67,VALID,1.62344,
2010-11-12, 00:42:04,VALID,916.05,VALID,0,VALID,97.0918,VALID,0,VALID,20.0148,VALID,241,VALID,0.624219,
2010-11-12, 00:43:04,VALID,916.049,VALID,0,VALID,97.1071,VALID,0,VALID,19.9758,VALID,259,VALID,0.937891,
2010-11-12, 00:44:04,VALID,916.036,VALID,0,VALID,97.0918,VALID,0,VALID,19.9563,VALID,26,VALID,0.887891,
2010-11-12, 00:45:04,VALID,916.058,VALID,0,VALID,97.0918,VALID,0,VALID,19.9563,VALID,26,VALID,0.313281,
2010-11-12, 00:46:04,VALID,916.005,VALID,0,VALID,97.0613,VALID,0,VALID,19.9368,VALID,26,VALID,0.549219,
2010-11-12, 00:47:04,VALID,916.008,VALID,0,VALID,97.1071,VALID,0,VALID,19.9173,VALID,19,VALID,0.907031,
2010-11-12, 00:48:04,VALID,915.971,VALID,0,VALID,97.0766,VALID,0,VALID,19.8978,VALID,53,VALID,1.00039,
2010-11-12, 00:49:04,VALID,915.969,VALID,0.2,VALID,97.0994,VALID,0,VALID,19.9173,VALID,53,VALID,0.143359,
2010-11-12, 00:50:04,VALID,915.923,VALID,0,VALID,97.1071,VALID,0,VALID,19.8768,VALID,53,VALID,0.915234,
2010-11-12, 00:51:04,VALID,915.909,VALID,0,VALID,97.1223,VALID,0,VALID,19.9173,VALID,53,VALID,0.355469,
2010-11-12, 00:52:04,VALID,915.886,VALID,0,VALID,97.1223,VALID,0,VALID,19.9173,VALID,95,VALID,0.812109,
2010-11-12, 00:53:04,VALID,915.88,VALID,0,VALID,97.1376,VALID,0,VALID,19.9368,VALID,128,VALID,0.261719,
2010-11-12, 00:54:04,VALID,915.854,VALID,0,VALID,97.1071,VALID,0,VALID,19.9173,VALID,88,VALID,0.627734,
2010-11-12, 00:55:04,VALID,915.831,VALID,0,VALID,97.0918,VALID,0,VALID,19.8588,VALID,230,VALID,0.764453,
2010-11-12, 00:56:04,VALID,915.821,VALID,0,VALID,97.1299,VALID,0,VALID,19.8783,VALID,231,VALID,1.05703,
2010-11-12, 00:57:04,VALID,915.809,VALID,0,VALID,97.0994,VALID,0,VALID,19.8378,VALID,271,VALID,0.392188,
2010-11-12, 00:58:04,VALID,915.841,VALID,0,VALID,97.1452,VALID,0,VALID,19.8783,VALID,271,VALID,0.504687,
2010-11-12, 00:59:04,VALID,915.791,VALID,0,VALID,97.1223,VALID,0,VALID,19.8573,VALID,262,VALID,1.12148,
2010-11-12, 01:00:04,VALID,915.781,VALID,0,VALID,97.1452,VALID,0,VALID,19.8588,VALID,24,VALID,1.23594,
2010-11-12, 01:01:04,VALID,915.74,VALID,0,VALID,97.1071,VALID,0,VALID,19.8588,VALID,28,VALID,1.58633,
2010-11-12, 01:02:04,VALID,915.745,VALID,0,VALID,97.1376,VALID,0,VALID,19.8783,VALID,42,VALID,0.4625,
2010-11-12, 01:03:04,VALID,915.737,VALID,0,VALID,97.1452,VALID,0,VALID,19.8588,VALID,38,VALID,1.54648,
2010-11-12, 01:04:04,VALID,915.771,VALID,0,VALID,97.1528,VALID,0,VALID,19.8573,VALID,30,VALID,0.262891,
2010-11-12, 01:05:04,VALID,915.741,VALID,0,VALID,97.1223,VALID,0,VALID,19.8378,VALID,203,VALID,0.8,
2010-11-12, 01:06:04,VALID,915.739,VALID,0,VALID,97.1376,VALID,0,VALID,19.8003,VALID,210,VALID,0.666016,
2010-11-12, 01:07:04,VALID,915.733,VALID,0,VALID,97.1376,VALID,0,VALID,19.8003,VALID,210,VALID,1.32695,
2010-11-12, 01:08:04,VALID,915.714,VALID,0,VALID,97.1452,VALID,0,VALID,19.7808,VALID,210,VALID,0.371875,
2010-11-12, 01:09:04,VALID,915.716,VALID,0,VALID,97.1528,VALID,0,VALID,19.8003,VALID,267,VALID,0.446484,
2010-11-12, 01:10:04,VALID,915.715,VALID,0,VALID,97.1376,VALID,0,VALID,19.7808,VALID,17,VALID,1.39453,
2010-11-12, 01:11:04,VALID,915.727,VALID,0,VALID,97.1528,VALID,0,VALID,19.7808,VALID,348,VALID,0.687109,
2010-11-12, 01:12:04,VALID,915.706,VALID,0,VALID,97.1452,VALID,0,VALID,19.7808,VALID,5,VALID,0.307813,
2010-11-12, 01:13:04,VALID,915.673,VALID,0,VALID,97.1376,VALID,0,VALID,19.8003,VALID,5,VALID,0.06875,
2010-11-12, 01:14:04,VALID,915.674,VALID,0,VALID,97.1757,VALID,0.107441,VALID,19.7793,VALID,5,VALID,0.462109,
2010-11-12, 01:15:04,VALID,915.633,VALID,0,VALID,97.1376,VALID,0,VALID,19.7598,VALID,357,VALID,0.811719,
2010-11-12, 01:16:04,VALID,915.602,VALID,0,VALID,97.1452,VALID,0,VALID,19.7193,VALID,357,VALID,1.18281,
2010-11-12, 01:17:04,VALID,915.616,VALID,0,VALID,97.1833,VALID,0,VALID,19.7598,VALID,357,VALID,0.466406,
2010-11-12, 01:18:04,VALID,915.599,VALID,0,VALID,97.1909,VALID,0.107441,VALID,19.7598,VALID,357,VALID,0.873438,
2010-11-12, 01:19:04,VALID,915.595,VALID,0,VALID,97.1681,VALID,0,VALID,19.7598,VALID,21,VALID,1.47852,
2010-11-12, 01:20:04,VALID,915.59,VALID,0,VALID,97.1833,VALID,0,VALID,19.7598,VALID,17,VALID,1.72773,
2010-11-12, 01:21:04,VALID,915.572,VALID,0,VALID,97.1986,VALID,0,VALID,19.7583,VALID,19,VALID,2.06641,
2010-11-12, 01:22:04,VALID,915.528,VALID,0,VALID,97.1604,VALID,0,VALID,19.7598,VALID,45,VALID,1.96523,
2010-11-12, 01:23:04,VALID,915.575,VALID,0,VALID,97.1909,VALID,0,VALID,19.7388,VALID,17,VALID,1.77461,
2010-11-12, 01:24:04,VALID,915.551,VALID,0,VALID,97.1757,VALID,0,VALID,19.7403,VALID,24,VALID,1.16641,
2010-11-12, 01:25:04,VALID,915.581,VALID,0,VALID,97.1757,VALID,0.107441,VALID,19.7598,VALID,10,VALID,1.6582,
2010-11-12, 01:26:04,VALID,915.57,VALID,0,VALID,97.1986,VALID,0,VALID,19.7208,VALID,15,VALID,1.32969,
2010-11-12, 01:27:04,VALID,915.56,VALID,0,VALID,97.1604,VALID,0,VALID,19.6623,VALID,251,VALID,0.378906,
2010-11-12, 01:28:04,VALID,915.549,VALID,0,VALID,97.2062,VALID,0,VALID,19.6818,VALID,29,VALID,1.80117,
2010-11-12, 01:29:04,VALID,915.507,VALID,0.2,VALID,97.1833,VALID,0,VALID,19.6833,VALID,38,VALID,2.25508,
2010-11-12, 01:30:04,VALID,915.56,VALID,0,VALID,97.1986,VALID,0,VALID,19.6848,VALID,29,VALID,2.13281,
2010-11-12, 01:31:04,VALID,915.549,VALID,0,VALID,97.229,VALID,0,VALID,19.6833,VALID,13,VALID,1.00859,
2010-11-12, 01:32:04,VALID,915.54,VALID,0,VALID,97.229,VALID,0,VALID,19.7223,VALID,12,VALID,0.877734,
2010-11-12, 01:33:04,VALID,915.527,VALID,0,VALID,97.2062,VALID,0,VALID,19.7223,VALID,22,VALID,0.964453,
2010-11-12, 01:34:04,VALID,915.523,VALID,0,VALID,97.2367,VALID,0,VALID,19.7418,VALID,22,VALID,0.417188,
2010-11-12, 01:35:04,VALID,915.479,VALID,0,VALID,97.2138,VALID,0,VALID,19.7223,VALID,22,VALID,0.786719,
2010-11-12, 01:36:04,VALID,915.492,VALID,0,VALID,97.2367,VALID,0,VALID,19.7223,VALID,22,VALID,1.01016,
2010-11-12, 01:37:04,VALID,915.48,VALID,0,VALID,97.229,VALID,0,VALID,19.7013,VALID,22,VALID,1.48555,
2010-11-12, 01:38:04,VALID,915.464,VALID,0,VALID,97.229,VALID,0,VALID,19.7223,VALID,28,VALID,1.00859,
2010-11-12, 01:39:04,VALID,915.411,VALID,0,VALID,97.2138,VALID,0,VALID,19.7223,VALID,28,VALID,1.16836,
2010-11-12, 01:40:04,VALID,915.407,VALID,0,VALID,97.2367,VALID,0,VALID,19.7028,VALID,29,VALID,1.33125,
2010-11-12, 01:41:04,VALID,915.391,VALID,0,VALID,97.2367,VALID,0,VALID,19.6833,VALID,28,VALID,1.45859,
2010-11-12, 01:42:04,VALID,915.379,VALID,0,VALID,97.2367,VALID,0,VALID,19.6833,VALID,14,VALID,1.29062,
2010-11-12, 01:43:04,VALID,915.352,VALID,0,VALID,97.2367,VALID,0,VALID,19.6833,VALID,14,VALID,0.798437,
2010-11-12, 01:44:04,VALID,915.373,VALID,0,VALID,97.2214,VALID,0,VALID,19.6833,VALID,335,VALID,1.16133,
2010-11-12, 01:45:04,VALID,915.38,VALID,0,VALID,97.2443,VALID,0,VALID,19.6443,VALID,322,VALID,0.657812,
2010-11-12, 01:46:04,VALID,915.394,VALID,0,VALID,97.2595,VALID,0,VALID,19.6833,VALID,323,VALID,0.701172,
2010-11-12, 01:47:04,VALID,915.379,VALID,0,VALID,97.2824,VALID,0,VALID,19.7028,VALID,324,VALID,1.0043,
2010-11-12, 01:48:04,VALID,915.38,VALID,0,VALID,97.2824,VALID,0,VALID,19.7223,VALID,26,VALID,0.792969,
2010-11-12, 01:49:04,VALID,915.361,VALID,0,VALID,97.229,VALID,0,VALID,19.7028,VALID,26,VALID,1.03477,
2010-11-12, 01:50:04,VALID,915.332,VALID,0,VALID,97.2443,VALID,0,VALID,19.6833,VALID,26,VALID,0.802734,
2010-11-12, 01:51:04,VALID,915.341,VALID,0,VALID,97.2748,VALID,0,VALID,19.6638,VALID,26,VALID,0.217969,
2010-11-12, 01:52:04,VALID,915.334,VALID,0,VALID,97.2748,VALID,0,VALID,19.6833,VALID,26,VALID,0.489844,
2010-11-12, 01:53:04,VALID,915.328,VALID,0,VALID,97.2443,VALID,0,VALID,19.7028,VALID,26,VALID,0.291797,
2010-11-12, 01:54:04,VALID,915.316,VALID,0,VALID,97.2595,VALID,0,VALID,19.7223,VALID,26,VALID,0.00546875,
2010-11-12, 01:55:04,VALID,915.281,VALID,0,VALID,97.2748,VALID,0,VALID,19.7223,VALID,26,VALID,0.655469,
2010-11-12, 01:56:04,VALID,915.226,VALID,0,VALID,97.2672,VALID,0,VALID,19.7028,VALID,26,VALID,1.43281,
2010-11-12, 01:57:04,VALID,915.235,VALID,0,VALID,97.2748,VALID,0,VALID,19.7028,VALID,343,VALID,0.767578,
2010-11-12, 01:58:04,VALID,915.183,VALID,0,VALID,97.2595,VALID,0,VALID,19.6428,VALID,343,VALID,1.18359,
2010-11-12, 01:59:04,VALID,915.225,VALID,0,VALID,97.29,VALID,0,VALID,19.7028,VALID,46,VALID,1.03086,
2010-11-12, 02:00:04,VALID,915.161,VALID,0,VALID,97.2824,VALID,0,VALID,19.7223,VALID,46,VALID,1.28047,
2010-11-12, 02:01:04,VALID,915.138,VALID,0,VALID,97.2824,VALID,0,VALID,19.7418,VALID,46,VALID,1.2793,
2010-11-12, 02:02:04,VALID,915.16,VALID,0,VALID,97.2748,VALID,0,VALID,19.7418,VALID,25,VALID,1.33516,
2010-11-12, 02:03:04,VALID,915.152,VALID,0,VALID,97.2748,VALID,0,VALID,19.7028,VALID,9,VALID,0.944141,
2010-11-12, 02:04:04,VALID,915.113,VALID,0,VALID,97.2595,VALID,0,VALID,19.6623,VALID,9,VALID,0.387109,
2010-11-12, 02:05:04,VALID,915.099,VALID,0,VALID,97.2672,VALID,0,VALID,19.6833,VALID,9,VALID,0.575,
2010-11-12, 02:06:04,VALID,915.113,VALID,0,VALID,97.3053,VALID,0,VALID,19.7028,VALID,9,VALID,0.432031,
2010-11-12, 02:07:04,VALID,915.049,VALID,0,VALID,97.29,VALID,0,VALID,19.7223,VALID,9,VALID,0.918359,
2010-11-12, 02:08:04,VALID,915.058,VALID,0,VALID,97.2748,VALID,0,VALID,19.7223,VALID,9,VALID,0.675,
2010-11-12, 02:09:04,VALID,915.032,VALID,0,VALID,97.2824,VALID,0,VALID,19.7418,VALID,9,VALID,0.973047,
2010-11-12, 02:10:04,VALID,914.974,VALID,0,VALID,97.3053,VALID,0,VALID,19.7418,VALID,9,VALID,0.798828,
2010-11-12, 02:11:04,VALID,915.004,VALID,0,VALID,97.29,VALID,0,VALID,19.7223,VALID,9,VALID,0.373828,
2010-11-12, 02:12:04,VALID,914.982,VALID,0,VALID,97.2977,VALID,0,VALID,19.7613,VALID,9,VALID,0.0382813,
2010-11-12, 02:13:04,VALID,914.949,VALID,0,VALID,97.3053,VALID,0,VALID,19.7613,VALID,9,VALID,0.178125,
2010-11-12, 02:14:04,VALID,914.972,VALID,0,VALID,97.2824,VALID,0.107441,VALID,19.7388,VALID,9,VALID,0.467969,
2010-11-12, 02:15:04,VALID,914.923,VALID,0,VALID,97.2824,VALID,0.107441,VALID,19.7403,VALID,9,VALID,0.390625,
2010-11-12, 02:16:04,VALID,914.936,VALID,0,VALID,97.2977,VALID,0,VALID,19.7193,VALID,9,VALID,0.532031,
2010-11-12, 02:17:04,VALID,914.933,VALID,0,VALID,97.29,VALID,0,VALID,19.7793,VALID,9,VALID,0.0878906,
2010-11-12, 02:18:04,VALID,914.95,VALID,0,VALID,97.29,VALID,0.107441,VALID,19.7598,VALID,9,VALID,0,
2010-11-12, 02:19:04,VALID,914.914,VALID,0,VALID,97.3129,VALID,0,VALID,19.7403,VALID,9,VALID,0,
2010-11-12, 02:20:04,VALID,914.961,VALID,0,VALID,97.2748,VALID,0,VALID,19.7598,VALID,9,VALID,0,
2010-11-12, 02:21:04,VALID,914.933,VALID,0,VALID,97.2748,VALID,0.107441,VALID,19.7208,VALID,9,VALID,0.644141,
2010-11-12, 02:22:04,VALID,914.969,VALID,0,VALID,97.2977,VALID,0.107441,VALID,19.7598,VALID,9,VALID,0.176563,
2010-11-12, 02:23:04,VALID,914.913,VALID,0,VALID,97.29,VALID,0.107441,VALID,19.7598,VALID,9,VALID,0.574219,
2010-11-12, 02:24:04,VALID,914.941,VALID,0,VALID,97.2977,VALID,0.107441,VALID,19.7388,VALID,9,VALID,0.476172,
2010-11-12, 02:25:04,VALID,914.895,VALID,0,VALID,97.29,VALID,0,VALID,19.7403,VALID,9,VALID,0.679688,
2010-11-12, 02:26:04,VALID,914.914,VALID,0,VALID,97.3358,VALID,0.107441,VALID,19.7793,VALID,9,VALID,0,
2010-11-12, 02:27:04,VALID,914.892,VALID,0,VALID,97.3053,VALID,0,VALID,19.7988,VALID,9,VALID,0,
2010-11-12, 02:28:04,VALID,914.884,VALID,0,VALID,97.2748,VALID,0.107441,VALID,19.7583,VALID,9,VALID,0,
2010-11-12, 02:29:04,VALID,914.864,VALID,0,VALID,97.3053,VALID,0,VALID,19.8003,VALID,9,VALID,0,
2010-11-12, 02:30:04,VALID,914.871,VALID,0,VALID,97.2748,VALID,0,VALID,19.7808,VALID,9,VALID,0,
2010-11-12, 02:31:04,VALID,914.851,VALID,0,VALID,97.2824,VALID,0,VALID,19.7223,VALID,9,VALID,0.580078,
2010-11-12, 02:32:04,VALID,914.823,VALID,0.2,VALID,97.2977,VALID,0,VALID,19.6833,VALID,9,VALID,0.275391,
2010-11-12, 02:33:04,VALID,914.824,VALID,0,VALID,97.3129,VALID,0,VALID,19.7028,VALID,9,VALID,0.0117188,
2010-11-12, 02:34:04,VALID,914.802,VALID,0,VALID,97.3205,VALID,0,VALID,19.7013,VALID,9,VALID,0.511328,
2010-11-12, 02:35:04,VALID,914.832,VALID,0,VALID,97.3129,VALID,0,VALID,19.7418,VALID,9,VALID,0.146875,
2010-11-12, 02:36:04,VALID,914.822,VALID,0,VALID,97.2977,VALID,0,VALID,19.7403,VALID,9,VALID,0,
2010-11-12, 02:37:04,VALID,914.808,VALID,0,VALID,97.2977,VALID,0,VALID,19.7418,VALID,8,VALID,0,
2010-11-12, 02:38:04,VALID,914.819,VALID,0,VALID,97.3129,VALID,0,VALID,19.7613,VALID,9,VALID,0.266797,
2010-11-12, 02:39:04,VALID,914.811,VALID,0,VALID,97.3053,VALID,0,VALID,19.7223,VALID,9,VALID,0.151953,
2010-11-12, 02:40:04,VALID,914.79,VALID,0,VALID,97.3053,VALID,0,VALID,19.7028,VALID,8,VALID,0.00078125,
2010-11-12, 02:41:04,VALID,914.785,VALID,0,VALID,97.3205,VALID,0,VALID,19.7028,VALID,8,VALID,0.0726563,
2010-11-12, 02:42:04,VALID,914.785,VALID,0,VALID,97.351,VALID,0,VALID,19.6818,VALID,8,VALID,0,
2010-11-12, 02:43:04,VALID,914.785,VALID,0,VALID,97.3053,VALID,0,VALID,19.7028,VALID,8,VALID,0,
2010-11-12, 02:44:04,VALID,914.792,VALID,0,VALID,97.3205,VALID,0,VALID,19.7418,VALID,9,VALID,0.249609,
2010-11-12, 02:45:04,VALID,914.802,VALID,0,VALID,97.29,VALID,0,VALID,19.7223,VALID,8,VALID,0,
2010-11-12, 02:46:04,VALID,914.784,VALID,0,VALID,97.29,VALID,0,VALID,19.7208,VALID,9,VALID,0.187109,
2010-11-12, 02:47:04,VALID,914.789,VALID,0,VALID,97.3053,VALID,0,VALID,19.7223,VALID,9,VALID,0.226563,
2010-11-12, 02:48:04,VALID,914.793,VALID,0,VALID,97.29,VALID,0.107441,VALID,19.7388,VALID,9,VALID,0,
2010-11-12, 02:49:04,VALID,914.808,VALID,0,VALID,97.3053,VALID,0.107441,VALID,19.7208,VALID,9,VALID,0.0652344,
2010-11-12, 02:50:04,VALID,914.799,VALID,0,VALID,97.3129,VALID,0,VALID,19.6998,VALID,8,VALID,0,
2010-11-12, 02:51:04,VALID,914.77,VALID,0,VALID,97.3205,VALID,0,VALID,19.7208,VALID,9,VALID,0,
2010-11-12, 02:52:04,VALID,914.772,VALID,0,VALID,97.3129,VALID,0.107441,VALID,19.7208,VALID,8,VALID,0,
2010-11-12, 02:53:04,VALID,914.732,VALID,0,VALID,97.2977,VALID,0.107441,VALID,19.7418,VALID,9,VALID,0.457812,
2010-11-12, 02:54:04,VALID,914.761,VALID,0,VALID,97.3129,VALID,0.107441,VALID,19.7598,VALID,9,VALID,0.821875,
2010-11-12, 02:55:04,VALID,914.727,VALID,0,VALID,97.3281,VALID,0,VALID,19.7388,VALID,9,VALID,0.623438,
2010-11-12, 02:56:04,VALID,914.734,VALID,0,VALID,97.3281,VALID,0,VALID,19.8198,VALID,8,VALID,0.572266,
2010-11-12, 02:57:04,VALID,914.746,VALID,0,VALID,97.3129,VALID,0,VALID,19.7988,VALID,9,VALID,1.10742,
2010-11-12, 02:58:04,VALID,914.733,VALID,0,VALID,97.2977,VALID,0,VALID,19.7988,VALID,9,VALID,0.641016,
2010-11-12, 02:59:04,VALID,914.757,VALID,0,VALID,97.2977,VALID,0.107441,VALID,19.7793,VALID,8,VALID,0.912109,
2010-11-12, 03:00:04,VALID,914.752,VALID,0,VALID,97.3053,VALID,0,VALID,19.7208,VALID,8,VALID,0.817969,
2010-11-12, 03:01:04,VALID,914.758,VALID,0,VALID,97.3129,VALID,0,VALID,19.7403,VALID,8,VALID,0.6875,
2010-11-12, 03:02:04,VALID,914.775,VALID,0,VALID,97.3281,VALID,0,VALID,19.6803,VALID,8,VALID,0.953125,
2010-11-12, 03:03:04,VALID,914.747,VALID,0,VALID,97.3053,VALID,0,VALID,19.7223,VALID,8,VALID,0.509375,
2010-11-12, 03:04:04,VALID,914.766,VALID,0,VALID,97.3129,VALID,0,VALID,19.6803,VALID,8,VALID,0.875781,
2010-11-12, 03:05:04,VALID,914.748,VALID,0,VALID,97.2977,VALID,0,VALID,19.6623,VALID,8,VALID,0.830469,
2010-11-12, 03:06:04,VALID,914.728,VALID,0,VALID,97.3129,VALID,0,VALID,19.6818,VALID,8,VALID,0.655469,
2010-11-12, 03:07:04,VALID,914.716,VALID,0,VALID,97.3358,VALID,0,VALID,19.6218,VALID,8,VALID,1.10898,
2010-11-12, 03:08:04,VALID,914.729,VALID,0,VALID,97.2824,VALID,0,VALID,19.6023,VALID,8,VALID,1.20156,
2010-11-12, 03:09:04,VALID,914.741,VALID,0,VALID,97.2977,VALID,0,VALID,19.6218,VALID,7,VALID,0.733203,
2010-11-12, 03:10:04,VALID,914.75,VALID,0,VALID,97.3129,VALID,0,VALID,19.6623,VALID,7,VALID,1.05352,
2010-11-12, 03:11:04,VALID,914.704,VALID,0,VALID,97.2977,VALID,0,VALID,19.6818,VALID,7,VALID,0.799609,
2010-11-12, 03:12:04,VALID,914.723,VALID,0,VALID,97.3129,VALID,0,VALID,19.7043,VALID,7,VALID,0.607422,
2010-11-12, 03:13:04,VALID,914.701,VALID,0,VALID,97.29,VALID,0,VALID,19.7028,VALID,346,VALID,0.8125,
2010-11-12, 03:14:04,VALID,914.701,VALID,0,VALID,97.3129,VALID,0,VALID,19.6443,VALID,357,VALID,0.969531,
2010-11-12, 03:15:04,VALID,914.749,VALID,0,VALID,97.3129,VALID,0,VALID,19.6233,VALID,357,VALID,0.274609,
2010-11-12, 03:16:04,VALID,914.688,VALID,0,VALID,97.3205,VALID,0,VALID,19.6653,VALID,9,VALID,1.3668,
2010-11-12, 03:17:04,VALID,914.707,VALID,0,VALID,97.2977,VALID,0,VALID,19.6458,VALID,329,VALID,0.448438,
2010-11-12, 03:18:04,VALID,914.732,VALID,0,VALID,97.29,VALID,0,VALID,19.6038,VALID,329,VALID,0.622656,
2010-11-12, 03:19:04,VALID,914.715,VALID,0,VALID,97.3434,VALID,0,VALID,19.6053,VALID,329,VALID,0.507813,
2010-11-12, 03:20:04,VALID,914.738,VALID,0,VALID,97.3129,VALID,0,VALID,19.6218,VALID,329,VALID,0.433594,
2010-11-12, 03:21:04,VALID,914.707,VALID,0,VALID,97.3434,VALID,0,VALID,19.6833,VALID,4,VALID,1.08359,
2010-11-12, 03:22:04,VALID,914.704,VALID,0,VALID,97.3281,VALID,0,VALID,19.6623,VALID,25,VALID,0.642578,
2010-11-12, 03:23:04,VALID,914.729,VALID,0,VALID,97.3281,VALID,0,VALID,19.6443,VALID,25,VALID,0.907812,
2010-11-12, 03:24:04,VALID,914.722,VALID,0,VALID,97.3129,VALID,0,VALID,19.6248,VALID,25,VALID,0.896875,
2010-11-12, 03:25:04,VALID,914.691,VALID,0,VALID,97.3053,VALID,0,VALID,19.6053,VALID,8,VALID,1.17813,
2010-11-12, 03:26:04,VALID,914.72,VALID,0,VALID,97.3053,VALID,0,VALID,19.5843,VALID,21,VALID,0.821094,
2010-11-12, 03:27:04,VALID,914.711,VALID,0,VALID,97.3281,VALID,0,VALID,19.5858,VALID,21,VALID,1.07617,
2010-11-12, 03:28:04,VALID,914.694,VALID,0,VALID,97.3205,VALID,0,VALID,19.6053,VALID,21,VALID,1.19062,
2010-11-12, 03:29:04,VALID,914.705,VALID,0,VALID,97.351,VALID,0,VALID,19.6233,VALID,21,VALID,0.355469,
2010-11-12, 03:30:04,VALID,914.729,VALID,0,VALID,97.3281,VALID,0,VALID,19.6218,VALID,21,VALID,0.625391,
2010-11-12, 03:31:04,VALID,914.739,VALID,0,VALID,97.3053,VALID,0,VALID,19.6428,VALID,21,VALID,0.792969,
2010-11-12, 03:32:04,VALID,914.733,VALID,0,VALID,97.3205,VALID,0,VALID,19.6623,VALID,21,VALID,1.00898,
2010-11-12, 03:33:04,VALID,914.734,VALID,0,VALID,97.3281,VALID,0,VALID,19.6233,VALID,42,VALID,1.05273,
2010-11-12, 03:34:04,VALID,914.752,VALID,0,VALID,97.3129,VALID,0,VALID,19.6248,VALID,39,VALID,1.56328,
2010-11-12, 03:35:04,VALID,914.757,VALID,0,VALID,97.3434,VALID,0,VALID,19.5633,VALID,13,VALID,1.60117,
2010-11-12, 03:36:04,VALID,914.782,VALID,0,VALID,97.3205,VALID,0.107441,VALID,19.6038,VALID,6,VALID,0.683594,
2010-11-12, 03:37:04,VALID,914.787,VALID,0,VALID,97.3205,VALID,0.107441,VALID,19.6233,VALID,6,VALID,0.323828,
2010-11-12, 03:38:04,VALID,914.818,VALID,0,VALID,97.3281,VALID,0,VALID,19.6023,VALID,6,VALID,0.460547,
2010-11-12, 03:39:04,VALID,914.842,VALID,0,VALID,97.3434,VALID,0,VALID,19.6443,VALID,6,VALID,0.53125,
2010-11-12, 03:40:04,VALID,914.855,VALID,0,VALID,97.3205,VALID,0,VALID,19.6443,VALID,5,VALID,0.551562,
2010-11-12, 03:41:04,VALID,914.828,VALID,0,VALID,97.3205,VALID,0,VALID,19.5633,VALID,220,VALID,0.930859,
2010-11-12, 03:42:04,VALID,914.863,VALID,0,VALID,97.3053,VALID,0,VALID,19.5633,VALID,52,VALID,1.19336,
2010-11-12, 03:43:04,VALID,914.851,VALID,0,VALID,97.3053,VALID,0,VALID,19.5648,VALID,52,VALID,0.788281,
2010-11-12, 03:44:04,VALID,914.876,VALID,0,VALID,97.3129,VALID,0,VALID,19.5843,VALID,52,VALID,0.879297,
2010-11-12, 03:45:04,VALID,914.891,VALID,0.2,VALID,97.3205,VALID,0,VALID,19.5843,VALID,52,VALID,0.328125,
2010-11-12, 03:46:04,VALID,914.862,VALID,0,VALID,97.3129,VALID,0,VALID,19.5843,VALID,21,VALID,0.833594,
2010-11-12, 03:47:04,VALID,914.894,VALID,0,VALID,97.3129,VALID,0,VALID,19.5663,VALID,238,VALID,1.37578,